x

Ps-1126 Tabs J (42044) Weather Station

2:00am - Fri 24th Mar 2017 All times are CST. -6 hours from GMT.

  • Wind
    20mph, 25mph gusts
  • Sea Temp 71°f
  • Air Temp 72°f
  • Sea Pressure 1013.3mb
  • Ps-1126 Tabs J
  • Ps-1126 Tabs J

More Historic Weather Station data

Upgrade to MSW Pro to gain access to the past 30 days of data for over 8000 Wavebouys and Weather Stations around the globe.

Join Pro

Comparision Forecast

View Surf forecast
   
Fri 03/24 2:00am 20 25 mph 1013.3mb 71f 72f
1:00am 20 25 mph 1014.2mb 71f 72f
12:00am 18 22 mph 1015.7mb 71f 72f
Thu 03/23 11:00pm 20 25 mph 1015.6mb 71f 72f
10:00pm 20 22 mph 1016.3mb 72f 72f
5:00pm 18 20 mph 1015.6mb 72f 73f
4:00pm 16 20 mph 1016.4mb 72f 73f
3:00pm 16 18 mph 1016.7mb 72f 73f
2:00pm 16 18 mph 1017.9mb 72f 72f
1:00pm 16 20 mph 1018.8mb 72f 72f
12:00pm 16 18 mph 1019.5mb 72f 72f
11:00am 16 18 mph 1019.8mb 71f 72f
10:00am 16 18 mph 1019.9mb 71f 72f
9:00am 13 16 mph 1019.8mb 71f 72f
8:00am 16 18 mph 1019.1mb 71f 72f
7:00am 16 18 mph 1018.5mb 71f 71f
6:00am 16 18 mph 1017.8mb 71f 71f
5:00am 13 16 mph 1017.8mb 71f 71f
4:00am 13 16 mph 1017.9mb 71f 71f
3:00am 13 16 mph 1018.1mb 71f 71f
2:00am 11 13 mph 1018.6mb 72f 71f
1:00am 11 13 mph 1019.3mb 72f 71f
12:00am 13 16 mph 1019.7mb 72f 72f
Wed 03/22 11:00pm 13 16 mph 1019.6mb 72f 72f
10:00pm 13 16 mph 1019.5mb 72f 72f
5:00pm 11 13 mph 1018.5mb 72f 73f
3:00pm 11 13 mph 1019.1mb 71f 73f
2:00pm 11 13 mph 1019mb 71f 72f
1:00pm 11 13 mph 1019.6mb 71f 72f
12:00pm 11 13 mph 1020.2mb 69f 72f
11:00am 11
mph
1020.1mb 69f 71f
10:00am 9 11 mph 1019.9mb 69f 71f
9:00am 7
mph
1019.4mb 69f 71f
8:00am 7 9 mph 1018.6mb 69f 70f
7:00am 7
mph
1017.8mb 69f 70f
6:00am 9 11 mph 1016.8mb 70f 70f
5:00am 11 13 mph 1016.3mb 70f 70f
4:00am 11 13 mph 1016.1mb 70f 70f
3:00am 11 13 mph 1016.4mb 71f 70f
2:00am 13 16 mph 1016.9mb 71f 70f
1:00am 11 13 mph 1017.7mb 71f 71f
Tue 03/21 11:00pm 13 16 mph 1018.4mb 72f 71f
10:00pm 13 18 mph 1018.4mb 72f 71f
5:00pm 11 13 mph 1017mb 72f 73f
4:00pm 11 13 mph 1017.2mb 72f 73f
3:00pm 13 16 mph 1017.8mb 71f 72f
2:00pm 13 18 mph 1018.2mb 72f 72f
1:00pm 13 16 mph 1019mb 71f 72f
12:00pm 13 16 mph 1019.7mb 71f 72f
11:00am 13
mph
1020.2mb 71f 71f
9:00am 11 13 mph 1020.1mb 70f 71f
8:00am 11 13 mph 1019.6mb 70f 71f
7:00am 11 13 mph 1019mb 70f 70f
6:00am 11 13 mph 1018.6mb 70f 70f
5:00am 11 13 mph 1018.1mb 70f 70f
4:00am 13 16 mph 1017.8mb 70f 70f
3:00am 13 16 mph 1017.8mb 71f 70f
2:00am 11 13 mph 1018.5mb 71f 70f
1:00am 13 16 mph 1019.2mb 71f 70f
12:00am 13 16 mph 1019.4mb 71f 70f
Mon 03/20 11:00pm 13
mph
1019.8mb 71f 70f
5:00pm 11 13 mph 1019.3mb 72f 72f
4:00pm 13 16 mph 1019.4mb 72f 72f
2:00pm 13 16 mph 1020.7mb 72f 71f
1:00pm 13
mph
1021.3mb 71f 71f
12:00pm 11 13 mph 1022.4mb 71f 71f
11:00am 13 16 mph 1023mb 71f 71f